Regional Weather Roundup
Issued by NWS Portland, ME

Home | Current Version | Previous Version | Text Only | Print | Product List | Glossary On
Versions: 1 2 3 4 5 6 7 8 9 10 11 12 13 14 15 16 17 18 19 20 21 22 23 24 25 26 27 28 29 30 31 32 33 34 35 36 37 38 39 40 41 42 43 44 45 46 47 48 49 50
000
ASUS41 KGYX 231710
RWRGYX
WEATHER ROUNDUP FOR MAINE AND NEW HAMPSHIRE
NATIONAL WEATHER SERVICE GRAY ME
100 PM EDT THU OCT 23 2014

MEZ002-005-006-010-012-015-018-020-021-024-026-027-029-231800-
MAINE

CITY           SKY/WX    TMP DP  RH WIND       PRES   REMARKS
PORTLAND       LGT RAIN  52  49  89 NE17G24   29.75F
SANFORD        CLOUDY    48  45  87 N20G32    29.73S
BAR HARBOR     CLOUDY    52  52 100 NE16G26   29.83F
WISCASSET      LGT RAIN  53  50  89 NE10G22   29.77F
ROCKLAND       CLOUDY    52  52 100 NE18G25   29.78F
FRYEBURG       LGT RAIN  49  46  90 N8        29.83F
LEWISTONAUBURN CLOUDY    48  45  87 NE18G36   29.79F
AUGUSTA        LGT RAIN  49  47  93 NE17      29.84F FOG
WATERVILLE     CLOUDY    48  43  81 NE17G32   29.82F
BANGOR         CLOUDY    50  48  93 NE15G30   29.88F FOG
GREENVILLE       N/A     45  42  89 NE16G23   29.92F
MILLINOCKET    LGT RAIN  47  45  93 NE10G23   30.00F FOG
HOULTON        LGT RAIN  48  45  89 N14       30.02F
PRESQUE ISLE   CLOUDY    50  37  62 N12       30.09F
FRENCHVILLE    CLOUDY    43  35  73 NE15G23   30.13F
CARIBOU        CLOUDY    49  38  65 NE12G20   30.09F
$$

NHZ002-005-008-009-011-012-014-231800-
NEW HAMPSHIRE

CITY           SKY/WX    TMP DP  RH WIND       PRES   REMARKS
PORTSMOUTH     LGT RAIN  52  49  91 N21G35    29.66F FOG
ROCHESTER      LGT RAIN  50  47  89 N18G28    29.71F
NASHUA         LGT RAIN  54  52  94 N12G20    29.69F FOG
MANCHESTER     LGT RAIN  53  47  79 NE20G29   29.69S
CONCORD        CLOUDY    51  50  96 N15G24    29.72F
LACONIA        CLOUDY    48  45  87 NE16G26   29.77F
PLYMOUTH       LGT RAIN  49  49 100 W5        29.80S
BERLIN         HVY RAIN  45  44  97 NW6       29.89R FOG
WHITEFIELD     RAIN      48  45  89 CALM      29.86S FOG
JAFFREY        LGT RAIN  48  46  93 N8G21     29.71F
LEBANON        LGT RAIN  49  46  90 N6        29.80F
MT WASHINGTON  FRZ RAIN  32  32 100 E64G74      N/A  VSB 1/16WCI  13
$$

VTZ005-007-008-231800-
VERMONT

CITY           SKY/WX    TMP DP  RH WIND       PRES   REMARKS
ST JOHNSBURY     N/A     47  46  97 MISG      29.86F
MONTPELIER     HVY RAIN  43  41  93 N9        29.92F FOG
BURLINGTON     LGT RAIN  45  41  86 N16       29.94F
$$

MAZ007-012-024-CTZ003-RIZ002-NYZ038-NYZ072-231800-
SOUTHERN NEW ENGLAND AND NY

CITY           SKY/WX    TMP DP  RH WIND       PRES   REMARKS
BOSTON         CLOUDY    53  51  93 N28G38    29.60F
WORCESTER      LGT RAIN  48  47  96 N17G26    29.64F VSB 3/4
NANTUCKET      MOSUNNY   60  57  89 N13       29.48F
PROVIDENCE     LGT RAIN  55  51  86 N16       29.59F
HARTFORD       LGT RAIN  54  47  77 N22G28    29.66F
ALBANY         LGT RAIN  47  44  90 N8        29.82F FOG
NEW YORK CITY  LGT RAIN  51  47  86 N18G28    29.70F
$$

ANZ081-ANZ082-ANZ150-NHZ014-MEZ023>029-231800-
COASTAL MARINE OBSERVATIONS

STATION/POSITION TIME  TEMP    WIND        PRES    WAVE
                       AIR SEA DIR/SP/G            HT/PER
                 (UTC) (F)     (DEG/KT/KT) (MB)    (FT/S)
MOUNT DESERT ROC 1700   54                 1005.6F
MATINICUS ROCK   1700           50/ 28/ 34 1006.2R
PORTLAND WX BUOY 1650   53 54   30/ 23/ 29 1005.5F   9/ 8
WELLS            1600   51 51   20/ 20/ 27 1005.2F
ISLE OF SHOALS   1700   51      30/ 43/ 47 1002.2F
JEFFREYS LEDGE   1621      56                N/A    15/11
CASHES LEDGE BUO 1650   56 55   60/ 21/ 27 1002.8R  14/11
$$

.............KEY..............
   WCI - WIND CHILL
   TC  - TEMPERATURE IN CELSIUS
   VSB - VISIBILITY IN MILES
   HX  - HEAT INDEX
   FAIR- INDICATES FEW OR NO CLOUDS BELOW 12,000 FT, WITH NO
         SIGNIFICANT WEATHER AND/OR OBSTRUCTIONS TO VISIBILITY.





USA.gov is the U.S. government's official web portal to all federal, state and local government web resources and services.